Content
SEND FEEDBACK

Daily
Averages
Monthly
Summary
United States of America

LONGVIEW, TEXAS


Home > North America > United States > Texas
Elevation: 365 feet     Latitude: 32 23N     Longitude: 094 42W

WEATHER
 
SELECT A DAY
Number of Records: 188,889;   Date Range: 1/1/95 - 12/16/14
 
SHARE

PRINT THIS DATA

[ ← Previous Day ]
WEATHER ALMANAC - JANUARY 31, 2013
[ Next Day → ]
[ °C ]   °F
Weather ElementAverageHighLow
Temperature48.4 °F64.9 °F (2:53 pm)32 °F (6:53 am)
Dewpoint26.3 °F30.9 °F (7:53 pm)21 °F (3:53 pm)
Humidity47.9 %82 % (6:53 am)19 % (3:53 pm)
Barometer30.21 in30.28 in (11:53 pm)30.17 in (2:53 pm)
Wind Speed9.5 mph17.3 mph (2:53 pm)
Wind Gust24.2 mph (11:53 pm)
Weather ElementAverage
Visibility10 mi
Wind DirectionSSW (203.5 °)

Weather ElementTotal
Precipitation---
Heating Degree Days16.6 (Base 65)
Averaged from 23 records on January 31, 2013
WEATHER CONDITIONS BREAKOUT
WIND DIRECTION BREAKOUT
WEATHER BY HOUR - JANUARY 31, 2013
[ °C ]   °F
Local TimeTemperatureDewpointHumidityBarometerVisibilityWind DirectionWind SpeedGust SpeedPrecipitationEventsConditions
1:53 AM36.0 °F28.0 °F73 %30.18 in10.0 miSSW (200°)8.1 mphClear
2:53 AM34.0 °F28.0 °F79 %30.18 in10.0 miSSW (200°)6.9 mphClear
3:53 AM36.0 °F27.0 °F70 %30.18 in10.0 miSSW (200°)8.1 mphClear
4:53 AM33.1 °F27.0 °F78 %30.18 in10.0 miSouth (190°)6.9 mphClear
5:53 AM33.1 °F27.0 °F78 %30.18 in10.0 miSSW (200°)4.6 mphClear
6:53 AM32.0 °F27.0 °F82 %30.19 in10.0 miSouth (190°)8.1 mphClear
7:53 AM37.9 °F27.0 °F65 %30.23 in10.0 miSSW (210°)9.2 mphClear
8:53 AM44.1 °F27.0 °F51 %30.25 in10.0 miSW (220°)8.1 mphClear
9:53 AM51.1 °F25.0 °F36 %30.25 in10.0 miSSW (210°)12.7 mphClear
10:53 AM55.0 °F25.0 °F31 %30.26 in10.0 miWSW (240°)15.0 mphClear
11:53 AM59.0 °F24.1 °F26 %30.24 in10.0 miSW (230°)15.0 mph19.6 mphClear
12:53 PM62.1 °F21.9 °F21 %30.22 in10.0 miSW (230°)10.4 mphClear
1:53 PM64.0 °F23.0 °F21 %30.18 in10.0 miSW (230°)10.4 mphClear
2:53 PM64.9 °F23.0 °F20 %30.17 in10.0 miSSW (210°)17.3 mph23.0 mphClear
3:53 PM64.0 °F21.0 °F19 %30.17 in10.0 miSSW (210°)13.8 mph19.6 mphClear
4:53 PM63.0 °F21.0 °F20 %30.17 in10.0 miSW (220°)13.8 mphClear
5:53 PM57.9 °F27.0 °F31 %30.17 in10.0 miSSW (200°)9.2 mphPartly Cloudy
6:53 PM53.1 °F28.0 °F38 %30.22 in10.0 miSouth (190°)4.6 mphClear
7:53 PM46.9 °F30.9 °F54 %30.22 in10.0 miSouth (190°)8.1 mphClear
8:53 PM46.9 °F30.0 °F52 %30.24 in10.0 miSouth (190°)6.9 mphClear
9:53 PM48.0 °F28.9 °F48 %30.24 in10.0 miSouth (190°)4.6 mphClear
10:53 PM45.0 °F28.9 °F53 %30.26 in10.0 miCalmClear
11:53 PM45.0 °F30.0 °F56 %30.28 in10.0 miNNW (330°)17.3 mph24.2 mphClear
Hourly data recorded from KGGG, located miles away from Longview, Texas







STORIES FROM OUR PARTNERS